Regional Weather Roundup
Issued by NWS Charleston, WV

Home | Current Version | Previous Version | Graphics & Text | Print | Product List | Glossary On
Versions: 1 2 3 4 5 6 7 8 9 10 11 12 13 14 15 16 17 18 19 20 21 22 23 24 25 26 27 28 29 30 31 32 33 34 35 36 37 38 39 40 41 42 43 44 45 46 47 48 49 50
506
ASUS41 KRLX 120010
RWRRLX
West Virginia Regional Weather Roundup
National Weather Service Charleston WV
700 PM EST MON DEC 11 2017

Note: "fair" indicates few or no clouds below 12,000 feet with no
significant weather and/or obstructions to visibility.

WVZ003-120100-
Northern Panhandle of West Virginia

CITY           SKY/WX    TMP DP  RH WIND       PRES   REMARKS
WHEELING       CLOUDY    34  20  56 E7        29.79F
$$

WVZ009-120100-
Northwest West Virginia

CITY           SKY/WX    TMP DP  RH WIND       PRES   REMARKS
PARKERSBURG    PTCLDY    37  24  59 CALM      29.80F
$$

WVZ006-120100-
Western West Virginia

CITY           SKY/WX    TMP DP  RH WIND       PRES   REMARKS
HUNTINGTON     PTCLDY    45  25  45 CALM      29.76F
$$

WVZ015-120100-
West Central West Virginia

CITY           SKY/WX    TMP DP  RH WIND       PRES   REMARKS
CHARLESTON     MOCLDY    41  26  55 SE3       29.77F
$$

WVZ022-031-120100-
North Central West Virginia

CITY           SKY/WX    TMP DP  RH WIND       PRES   REMARKS
CLARKSBURG     CLOUDY    38  23  55 CALM      29.79F
MORGANTOWN     MOCLDY    39  21  48 E3        29.81F
$$

WVZ025-035-042-045-120100-
Southern West Virginia

CITY           SKY/WX    TMP DP  RH WIND       PRES   REMARKS
BECKLEY        CLEAR     42  21  43 SE8       29.81F
LOGAN            N/A     48  25  40 S8G20     29.78F
BLUEFIELD      CLEAR     42  21  43 SW8       29.85F
LEWISBURG      CLEAR     33  25  72 CALM      29.84F
$$

WVZ047-120100-
Northern Mountains of West Virginia

CITY           SKY/WX    TMP DP  RH WIND       PRES   REMARKS
ELKINS         CLEAR     29  22  75 CALM      29.80F
$$

WVZ052-120100-
Eastern Panhandle of West Virginia

CITY           SKY/WX    TMP DP  RH WIND       PRES   REMARKS
MARTINSBURG    MOCLDY    40  23  50 SE6       29.89F
PETERSBURG     CLEAR     30  23  74 CALM      29.85F
$$




USA.gov is the U.S. government's official web portal to all federal, state and local government web resources and services.